CST,Max TemperatureF,Mean TemperatureF,Min TemperatureF,Max Dew PointF,MeanDew PointF,Min DewpointF,Max Humidity, Mean Humidity, Min Humidity, Max Sea Level PressureIn, Mean Sea Level PressureIn, Min Sea Level PressureIn, Max VisibilityMiles, Mean VisibilityMiles, Min VisibilityMiles, Max Wind SpeedMPH, Mean Wind SpeedMPH, Max Gust SpeedMPH,PrecipitationIn, CloudCover, Events, WindDirDegrees
2014-1-1,14,8,1,9,4,-4,85,78,72,30.41,30.25,30.12,10,8,0,20,13,24,0.00,5,Rain-Snow,21
2014-1-2,8,0,-9,-4,-6,-15,84,69,52,30.50,30.45,30.38,10,10,9,12,6,15,0.00,3,Snow,344
2014-1-3,32,12,-9,25,10,-13,84,70,64,30.43,29.98,29.64,10,10,10,25,11,34,0.00,1,,172
2014-1-4,35,24,14,28,16,7,81,72,65,30.21,29.95,29.68,10,10,10,24,13,31,0.00,6,,339
2014-1-5,14,4,-7,5,-7,-20,73,59,46,30.55,30.38,30.20,10,10,3,24,17,33,0.00,4,Snow,347
2014-1-6,3,-5,-13,-11,-16,-20,77,61,51,30.54,30.47,30.34,10,10,10,16,9,25,0.00,3,,289
2014-1-7,24,8,-7,12,3,-13,79,69,54,30.33,30.17,30.06,10,10,7,13,3,,0.00,3,,173
2014-1-8,19,12,6,14,9,1,93,75,63,30.43,30.36,30.25,10,9,2,13,6,15,0.00,5,Rain-Snow,56
2014-1-9,24,16,8,25,12,3,100,83,73,30.38,30.19,29.98,10,9,2,14,6,21,0.00,7,,131
2014-1-10,35,30,24,34,32,25,100,99,93,29.97,29.70,29.55,7,3,0,13,7,,0.00,8,Fog-Rain,178
2014-1-11,44,32,21,30,26,19,100,82,57,29.85,29.77,29.63,10,8,0,16,6,22,0.00,1,Fog,254
2014-1-12,51,42,33,34,31,27,81,65,47,29.78,29.60,29.46,10,10,10,18,7,25,0.00,1,Rain,215
2014-1-13,46,39,32,34,28,23,87,68,46,29.88,29.77,29.67,10,10,10,15,9,25,0.00,2,Rain,263
2014-1-14,44,32,19,34,19,9,87,59,33,30.24,30.02,29.67,10,10,10,30,14,40,0.00,2,,314
2014-1-15,33,20,8,23,12,5,85,65,43,30.26,30.07,29.77,10,10,10,15,8,24,0.00,3,,231
2014-1-16,42,28,15,28,19,5,81,58,36,30.08,29.85,29.72,10,10,4,33,15,46,0.00,6,Rain-Snow,305
2014-1-17,30,20,10,10,-1,-13,67,44,15,30.18,30.09,29.91,10,10,10,17,11,32,0.00,2,,298
2014-1-18,42,28,14,32,19,10,93,65,48,30.11,29.86,29.64,10,10,5,34,13,52,0.00,5,Rain,285
2014-1-19,60,37,14,25,21,12,93,56,23,30.06,29.84,29.69,10,10,10,20,9,24,0.00,0,,236
2014-1-20,48,27,6,32,20,-2,93,66,37,30.45,30.06,29.85,10,10,3,31,8,40,0.00,3,Rain-Snow,314
2014-1-21,23,10,-2,3,-7,-13,66,50,35,30.54,30.34,30.06,10,10,10,21,12,30,0.00,3,,240
2014-1-22,28,14,1,18,6,-11,74,58,43,30.60,30.24,30.06,10,10,7,23,12,36,0.00,4,Rain,330
2014-1-23,14,5,-4,-6,-9,-11,71,58,38,30.85,30.72,30.53,10,10,10,16,11,22,0.00,0,,313
2014-1-24,50,28,6,36,11,-6,58,46,31,30.52,30.02,29.70,10,10,10,25,15,32,0.00,3,,229
2014-1-25,48,38,28,34,19,5,87,54,28,30.08,29.90,29.60,10,10,6,24,14,34,0.00,5,,314
2014-1-26,53,30,8,32,19,-13,70,48,17,30.32,29.76,29.54,10,10,7,37,17,53,0.00,3,,302
2014-1-27,12,4,-5,-9,-11,-13,77,50,34,30.51,30.46,30.33,10,10,10,24,14,32,0.00,0,,332
2014-1-28,21,6,-9,-2,-9,-15,84,56,28,30.51,30.40,30.27,10,10,9,16,3,23,0.00,0,,275
2014-1-29,44,20,-4,12,4,-8,85,51,25,30.27,30.01,29.68,10,10,10,24,7,30,0.00,0,,181
2014-1-30,42,30,19,25,13,7,63,47,28,30.10,29.76,29.51,10,10,10,26,17,33,0.00,4,Rain,292
2014-1-31,23,18,14,16,11,5,86,73,58,30.19,30.08,29.98,10,9,2,14,10,17,0.00,7,Rain-Snow,49